Погода в Красном Лимане

Россия / Воронежская область     51°31′30″N   39°51′58″E
темп.,
°C
ветер,
м/с
пор.,
м/с
влажн.,
%
обл.,
%
осадки,
мм/ч
давл.,
гПа
погр.,
м
27 ноября, сб
сб2700:00−2ю410835 0.0 1019243
03:00−3ююв498830 0.0 1018198
06:00−2ююв5139151 0.0 1016270
09:00+1юв71488100 0.0 1015325
12:00+3ююв81879100 0.0 1013587
15:00+3ююв91781100 0.6 1010643
18:00+3ююв91989100 2.8 1009754
21:00+3ю81591100 4.1 1008517
28 ноября, вс
вс2800:00+3ю61394100 0.1 1008406
03:00+4ю51295100 0.1 1008323
06:00+4ю51098100 0.0 1007295
09:00+5ю4898100 0.1 1009232
12:00+6ю3798100 0.1 1009228
15:00+6ю2498100 0.2 1010123
18:00+6ю2396100 0.0 101156
21:00+5ююв359363 0.0 101282
29 ноября, пн
пн2900:00+4юв4995100 0.0 1011155
03:00+5юв51197100 0.0 1010242
06:00+7юв71897100 1.6 1006587
09:00+8ююв91893100 6.7 1004669
12:00+9ю81793100 2.6 1002753
15:00+11ю81590100 3.1 1001834
18:00+10ююв81596100 4.8 998715
21:00+11ююв112088100 6.9 9931172
30 ноября, вт
вт3000:00+12ю122186100 1.0 9891361
03:00+12ююз111986100 2.0 9871252
06:00+9юз101682100 0.3 989948
09:00+6зюз91576100 0.4 9931085
12:00+4зюз9156291 0.0 9961206
15:00+4юз814615 0.0 9961086
18:00+3юз8146735 0.0 997851
21:00+2юз6127197 0.0 997731
1 декабря, ср
ср100:00+1юз51175100 0.0 997548
03:000зюз41076100 0.0 996545
06:00−1з51075100 0.0 996743
09:00−1з61174100 0.0 998990
12:00+1з81169100 0.1 9991354
15:000з71165100 0.1 10001323
18:00−1з7116665 0.0 10031005
21:00−2з610715 0.0 1005644